Terug naar catalogus

STARLINK-35175

ActiefCommunicatieVLEO
NORAD 65929·PAYLOAD·🇺🇸 United States

Gelanceerd Oct 8, 2025 vanaf Vandenberg Space Force Base

Loading…

Volgende Passages (komende 24 uur)

TLE

VersSource: CelesTrak SupGP

Epoch: Sep 14, 2026, 21:25 UTC

1 65929C 25225V   26257.89284722  .00003645  00000+0  10770-3 0  2573
2 65929  53.1602   5.6537 0001208  73.3491 258.4422 15.34384806    14

Volg STARLINK-35175 in realtime met AllMySat

Download on the App Store